Location: Wald
(31.7579°N, 86.6655°W)
Time: 12:29:57
(UTC+00:00)

SPOT 5 - Pass Details

Date: 14 July 2020
Orbit: 622 x 815 km, 98.3° (Epoch: 09 August)

Event Time Altitude Azimuth Distance (km) Brightness Sun altitude
Exits shadow 03:41:54 65° 353° (N) 784 3.1 -28.1°
Drops below altitude 10° 03:45:55 10° 348° (NNW) 2,149 6.1 -28.6°
Sets 03:48:06 0° 349° (NNW) 3,039 7.1 -28.9°
